Total_Precipitation_Accumulation
0.00 0.00 0.00 0.00 0.00 0.00 0.00 0.01 0.02 0.05 0.11 0.10 0.12 0.16 0.21 0.28 0.35 0.75 0.44 0.19 0.10 0.04 0.01 0.02 0.03 0.04 0.05 0.06 0.07 0.08 0.07 0.07 0.08 0.09 0.09 0.10 0.09 0.09 0.09 0.09 0.12 0.18 0.21 0.20 0.18 0.18 0.19 0.17 0.11
0.00 0.00 0.00 0.00 0.00 0.00 0.01 0.02 0.03 0.06 0.10 0.13 0.12 0.15 0.20 0.23 0.17 0.11 0.09 0.10 0.09 0.04 0.01 0.01 0.03 0.03 0.04 0.04 0.06 0.09 0.09 0.07 0.07 0.08 0.08 0.09 0.08 0.08 0.08 0.09 0.13 0.19 0.24 0.24 0.22 0.20 0.19 0.15 0.10
0.00 0.00 0.00 0.00 0.00 0.00 0.02 0.03 0.04 0.05 0.08 0.12 0.19 0.26 0.28 0.26 0.24 0.14 0.11 0.10 0.10 0.04 0.01 0.02 0.03 0.03 0.04 0.04 0.05 0.08 0.10 0.08 0.08 0.08 0.08 0.09 0.09 0.09 0.10 0.11 0.13 0.15 0.20 0.19 0.15 0.13 0.13 0.13 0.09
0.00 0.00 0.00 0.00 0.00 0.00 0.01 0.04 0.05 0.04 0.08 0.11 0.20 0.35 0.32 0.28 0.26 0.21 0.15 0.14 0.11 0.05 0.02 0.02 0.03 0.04 0.05 0.06 0.07 0.08 0.08 0.09 0.10 0.11 0.12 0.13 0.12 0.11 0.13 0.16 0.17 0.17 0.17 0.16 0.13 0.12 0.11 0.12 0.09
0.00 0.00 0.00 0.00 0.00 0.00 0.01 0.03 0.06 0.05 0.07 0.12 0.19 0.38 0.50 0.49 0.50 0.43 0.25 0.21 0.21 0.13 0.06 0.03 0.04 0.06 0.08 0.10 0.12 0.14 0.14 0.14 0.15 0.16 0.18 0.17 0.16 0.16 0.17 0.18 0.19 0.19 0.19 0.17 0.15 0.16 0.14 0.11 0.09
0.00 0.00 0.00 0.00 0.00 0.01 0.01 0.03 0.05 0.08 0.08 0.10 0.22 0.45 0.83 0.79 0.61 0.63 0.53 0.35 0.29 0.17 0.10 0.07 0.06 0.08 0.13 0.16 0.18 0.20 0.17 0.16 0.16 0.19 0.21 0.18 0.15 0.14 0.14 0.15 0.16 0.18 0.21 0.20 0.15 0.11 0.08 0.06 0.08
0.00 0.00 0.00 0.00 0.01 0.01 0.01 0.03 0.05 0.07 0.08 0.14 0.27 0.50 0.89 0.94 0.74 0.75 0.74 0.53 0.44 0.30 0.16 0.12 0.09 0.09 0.16 0.24 0.22 0.19 0.17 0.16 0.18 0.22 0.25 0.22 0.17 0.13 0.12 0.15 0.16 0.17 0.17 0.14 0.08 0.05 0.04 0.04 0.05
0.00 0.00 0.00 0.00 0.01 0.02 0.03 0.04 0.06 0.10 0.13 0.24 0.31 0.49 0.90 1.04 0.90 0.72 0.68 0.57 0.50 0.45 0.27 0.20 0.19 0.18 0.19 0.21 0.22 0.21 0.19 0.19 0.20 0.22 0.21 0.17 0.13 0.11 0.11 0.11 0.12 0.12 0.14 0.14 0.10 0.06 0.05 0.04 0.05
0.00 0.00 0.00 0.00 0.01 0.02 0.04 0.06 0.07 0.07 0.12 0.23 0.23 0.46 0.81 0.89 0.83 0.80 0.75 0.61 0.53 0.46 0.39 0.34 0.28 0.26 0.24 0.21 0.17 0.17 0.17 0.18 0.16 0.14 0.13 0.12 0.13 0.18 0.18 0.13 0.13 0.16 0.17 0.15 0.10 0.08 0.07 0.05 0.05
0.00 0.00 0.00 0.00 0.01 0.01 0.03 0.05 0.07 0.08 0.10 0.18 0.32 0.45 0.60 0.78 0.88 0.91 0.91 0.79 0.69 0.64 0.58 0.52 0.47 0.42 0.36 0.30 0.29 0.24 0.18 0.17 0.14 0.16 0.14 0.16 0.35 0.45 0.36 0.34 0.27 0.25 0.20 0.15 0.13 0.11 0.09 0.08 0.08
0.00 0.00 0.00 0.00 0.00 0.01 0.01 0.02 0.05 0.09 0.17 0.21 0.39 0.69 0.70 0.77 0.94 1.12 1.10 1.06 1.06 0.96 0.68 0.59 0.64 0.59 0.61 0.59 0.44 0.41 0.35 0.33 0.25 0.34 0.35 0.42 0.55 0.50 0.49 0.52 0.40 0.31 0.26 0.23 0.24 0.18 0.14 0.13 0.17
0.00 0.00 0.00 0.00 0.00 0.01 0.01 0.02 0.04 0.08 0.26 0.31 0.43 0.67 0.95 1.02 1.19 1.15 1.18 1.24 1.19 1.26 1.04 0.79 0.69 0.63 0.66 0.77 0.65 0.62 0.56 0.53 0.46 0.52 0.41 0.52 0.66 0.73 0.74 0.85 0.74 0.66 0.59 0.53 0.45 0.39 0.29 0.27 0.27
0.00 0.00 0.00 0.00 0.00 0.00 0.01 0.03 0.06 0.06 0.10 0.29 0.42 0.56 0.86 0.89 0.97 1.08 1.26 1.55 1.62 1.56 1.38 1.11 0.87 0.80 0.82 0.91 0.92 0.87 0.81 0.78 0.84 0.88 0.72 0.72 0.71 0.82 1.03 1.08 1.21 1.02 1.01 0.94 0.81 0.67 0.61 0.52 0.45
0.00 0.00 0.00 0.00 0.00 0.00 0.02 0.03 0.07 0.05 0.06 0.14 0.24 0.36 0.65 0.74 0.91 1.14 1.33 1.64 1.95 1.89 1.60 1.41 1.24 1.07 0.96 0.93 0.99 0.95 0.87 0.92 1.00 1.14 1.06 1.01 0.97 1.13 1.43 1.48 1.46 1.32 1.34 1.37 1.37 1.23 1.03 0.85 0.80
0.00 0.00 0.00 0.00 0.00 0.00 0.01 0.03 0.04 0.05 0.07 0.10 0.14 0.28 0.45 0.73 0.86 1.22 1.52 1.68 1.88 1.73 1.77 1.72 1.61 1.44 1.19 1.05 1.12 1.19 1.11 1.11 1.16 1.32 1.38 1.34 1.29 1.49 1.57 1.83 1.82 1.69 1.66 1.58 1.50 1.62 1.60 1.35 1.16
0.00 0.00 0.00 0.01 0.00 0.00 0.01 0.04 0.05 0.07 0.07 0.08 0.13 0.26 0.38 0.58 0.75 0.96 1.27 1.51 1.89 1.86 1.73 1.74 1.58 1.39 1.44 1.38 1.47 1.48 1.54 1.63 1.60 1.63 1.84 1.90 1.83 1.88 1.88 1.92 1.96 1.89 1.86 2.03 2.07 1.99 1.96 1.89 1.67
0.00 0.00 0.00 0.01 0.00 0.00 0.01 0.05 0.12 0.07 0.04 0.07 0.11 0.25 0.44 0.42 0.52 0.65 0.95 1.19 1.49 1.52 1.57 1.64 1.67 1.55 1.48 1.64 1.89 1.92 1.99 2.23 2.35 2.31 2.50 2.50 2.34 2.33 2.41 2.45 2.50 2.38 2.39 2.36 2.26 2.33 2.28 2.20 1.99
0.00 0.00 0.01 0.01 0.00 0.00 0.01 0.03 0.11 0.10 0.06 0.09 0.12 0.21 0.41 0.43 0.56 0.75 0.90 1.01 1.28 1.37 1.46 1.59 1.78 1.88 1.79 1.83 2.03 2.33 2.47 2.62 2.95 2.97 2.95 2.99 3.03 3.04 3.06 3.00 3.02 2.94 2.78 2.65 2.60 2.52 2.31 2.19 1.96
0.00 0.00 0.00 0.01 0.01 0.00 0.02 0.05 0.08 0.12 0.11 0.16 0.22 0.26 0.35 0.50 0.73 0.92 1.10 1.20 1.39 1.58 1.82 1.79 1.85 2.03 2.21 2.46 2.46 2.62 2.97 3.33 3.54 3.67 3.72 3.70 3.61 3.57 3.40 3.28 3.29 3.13 2.93 2.76 2.64 2.51 2.41 2.12 1.89
0.00 0.00 0.01 0.01 0.01 0.01 0.04 0.11 0.15 0.17 0.18 0.22 0.32 0.34 0.34 0.43 0.66 0.97 1.14 1.35 1.56 1.73 1.93 2.04 2.09 2.41 2.88 3.28 3.70 4.11 4.39 4.40 4.53 4.54 4.48 4.33 4.18 4.00 3.77 3.70 3.54 3.29 3.09 2.85 2.61 2.44 2.39 2.18 2.01
0.00 0.00 0.01 0.02 0.03 0.05 0.08 0.22 0.28 0.27 0.31 0.34 0.37 0.39 0.43 0.53 0.69 0.89 1.11 1.38 1.59 1.74 1.95 2.09 2.36 3.01 3.80 4.18 4.50 5.06 5.38 5.20 4.98 4.72 4.59 4.51 4.48 4.42 4.16 4.02 3.75 3.47 3.14 2.86 2.61 2.40 2.30 2.21 2.08
0.00 0.01 0.01 0.02 0.03 0.08 0.10 0.27 0.43 0.46 0.48 0.42 0.45 0.51 0.57 0.64 0.77 0.94 1.15 1.38 1.68 1.96 2.03 2.20 2.70 3.46 4.12 4.59 5.13 5.65 5.88 5.89 5.75 5.26 4.78 4.33 3.99 3.80 3.68 3.54 3.36 3.12 2.80 2.57 2.37 2.17 2.06 2.09 1.98
0.01 0.00 0.01 0.02 0.04 0.07 0.09 0.25 0.55 0.65 0.69 0.67 0.66 0.64 0.61 0.62 0.80 0.94 1.07 1.26 1.45 1.72 2.09 2.34 2.86 3.55 4.23 4.91 5.55 5.94 6.16 6.12 5.72 4.93 4.19 3.74 3.45 3.17 2.94 2.79 2.67 2.51 2.32 2.14 2.02 1.94 1.83 1.76 1.67
0.01 0.01 0.01 0.02 0.04 0.08 0.09 0.21 0.61 0.90 0.99 1.00 0.89 0.84 0.73 0.62 0.68 0.80 0.96 1.04 1.32 1.59 1.88 2.29 2.59 3.21 3.89 4.47 4.97 5.14 5.30 5.25 4.82 4.34 3.83 3.45 3.02 2.53 2.17 1.98 1.85 1.75 1.65 1.62 1.60 1.56 1.51 1.46 1.41
0.01 0.02 0.06 0.12 0.15 0.16 0.12 0.25 0.65 0.97 0.98 0.90 0.86 0.84 0.80 0.66 0.66 0.85 1.06 0.99 1.20 1.51 1.84 2.21 2.60 2.99 3.50 4.00 4.45 4.69 4.81 4.62 4.16 3.74 3.34 2.89 2.45 2.05 1.70 1.50 1.40 1.36 1.32 1.25 1.26 1.26 1.22 1.20 1.20
0.01 0.02 0.10 0.18 0.23 0.26 0.27 0.49 0.85 0.96 0.89 0.78 0.74 0.70 0.71 0.70 0.69 0.79 0.95 0.99 1.21 1.42 1.70 2.05 2.37 2.69 2.89 3.08 3.40 3.61 3.76 3.62 3.29 2.82 2.38 2.11 1.86 1.60 1.39 1.25 1.16 1.03 0.91 0.88 0.91 0.95 0.97 0.97 1.04
0.02 0.03 0.05 0.07 0.11 0.26 0.53 0.77 1.07 1.04 0.88 0.83 0.76 0.71 0.73 0.73 0.70 0.75 0.86 0.96 1.16 1.44 1.68 1.94 2.07 2.23 2.39 2.49 2.55 2.60 2.70 2.60 2.36 2.09 1.83 1.57 1.32 1.13 0.99 0.88 0.80 0.75 0.68 0.65 0.68 0.72 0.75 0.79 0.85
0.02 0.03 0.04 0.08 0.17 0.34 0.60 0.94 1.21 1.36 1.24 1.07 0.88 0.80 0.73 0.75 0.73 0.74 0.80 0.85 0.94 1.06 1.33 1.54 1.66 1.73 1.79 1.83 1.88 1.89 1.90 1.82 1.72 1.57 1.38 1.17 1.01 0.86 0.74 0.62 0.55 0.55 0.56 0.56 0.52 0.54 0.57 0.60 0.65
0.03 0.04 0.07 0.10 0.13 0.29 0.61 1.13 1.37 1.61 1.64 1.37 1.06 0.93 0.89 0.88 0.81 0.76 0.76 0.72 0.76 0.80 0.95 1.15 1.29 1.32 1.39 1.45 1.42 1.37 1.42 1.37 1.30 1.24 1.16 1.01 0.90 0.79 0.69 0.61 0.58 0.55 0.50 0.48 0.48 0.47 0.49 0.55 0.57
0.05 0.07 0.09 0.18 0.19 0.22 0.54 1.34 1.72 1.84 1.71 1.41 1.21 1.08 1.02 0.93 0.81 0.72 0.66 0.59 0.62 0.67 0.71 0.81 0.91 0.92 0.96 1.00 1.01 1.06 1.10 1.11 1.06 0.97 0.87 0.73 0.64 0.60 0.56 0.50 0.50 0.50 0.47 0.45 0.43 0.41 0.40 0.39 0.40